CAPE
1 6 0 15 301 658 653 803 796 782 470 454 317 220 202 255 190 223 498 377 434 447 394 481 532 519 511 338 323 300 377 522 592 535 528 449 298 227 65 20 108 322 551
1 1 0 14 202 604 788 720 687 501 308 745 725 708 664 406 234 189 283 266 219 203 205 307 293 322 251 40 32 125 122 122 144 84 145 213 383 439 369 71 68 32 5
1 8 198 253 303 542 880 699 551 309 123 776 717 652 565 408 358 283 205 103 50 100 17 173 254 187 88 10 4 1 0 0 0 58 124 186 253 310 306 398 370 143 129
0 148 714 822 878 822 549 329 119 218 178 682 529 448 335 273 184 155 117 83 22 17 11 19 134 89 13 6 3 0 0 0 6 7 5 23 71 151 235 332 376 387 251
1 396 491 538 613 526 129 200 187 99 158 437 296 204 128 81 69 62 27 7 6 9 5 4 7 7 2 3 0 0 0 0 0 0 1 0 0 6 6 4 18 96 199
0 313 218 267 130 72 24 253 309 211 246 53 14 7 16 36 28 13 6 5 4 2 1 2 2 2 0 0 0 0 0 0 1 16 3 2 2 7 3 0 0 2 8
4 134 132 97 124 43 15 0 10 61 49 13 12 12 12 4 8 4 1 3 5 3 2 2 1 0 0 0 0 0 0 0 2 8 1 1 1 3 1 0 0 0 0
6 1 54 67 70 8 23 4 0 0 44 20 4 0 2 9 8 4 2 1 1 1 0 0 0 0 0 0 0 0 0 0 0 0 0 0 0 0 0 0 0 0 0
1 0 1 45 74 26 7 7 2 31 0 4 9 4 7 4 3 0 0 0 0 0 0 0 0 0 0 0 0 0 0 0 0 0 0 0 0 0 0 0 0 0 0
0 0 0 1 5 1 8 0 1 1 6 0 7 8 3 1 0 0 0 0 0 0 0 0 0 0 0 0 0 0 0 0 0 0 0 0 0 0 0 0 0 0 0
0 1 0 0 0 0 0 7 16 15 2 0 0 0 0 0 0 0 0 0 0 0 0 0 0 0 0 0 0 0 0 0 0 0 0 0 0 0 0 2 2 6 8
0 1 0 0 0 0 0 0 0 0 0 0 0 0 0 0 0 0 0 0 0 0 0 0 0 0 0 0 0 0 0 0 0 0 0 0 7 10 4 5 3 2 5
1 0 0 0 0 0 0 0 0 0 0 0 0 0 0 0 0 0 0 0 0 0 0 0 0 0 0 0 0 0 0 0 0 0 0 0 9 7 3 5 1 1 1
1 0 0 0 0 0 0 0 0 0 0 0 0 0 0 0 0 0 0 0 0 0 0 0 0 0 0 0 0 0 0 0 0 0 0 0 2 2 6 5 6 7 8
0 0 0 0 0 0 0 0 0 0 0 0 0 0 0 0 0 0 0 0 0 0 0 0 0 0 0 0 0 0 0 0 0 0 0 0 0 1 1 1 1 0 1
3 0 0 0 0 0 0 0 0 0 0 0 0 0 0 0 0 0 0 0 0 0 0 0 0 0 0 0 0 0 0 0 0 0 0 0 0 0 0 0 0 0 0
0 1 0 0 0 0 0 0 0 0 0 0 0 0 0 0 0 0 0 0 0 0 0 0 0 0 0 0 0 0 0 0 0 0 0 0 0 0 0 0 0 0 0
0 1 1 0 0 0 0 0 0 0 0 0 0 0 0 0 0 0 0 0 0 0 0 0 0 0 0 0 0 0 0 0 0 0 0 0 0 0 0 0 0 0 0
0 0 0 0 0 0 0 0 0 0 0 0 0 0 0 0 0 0 0 0 0 0 0 0 0 0 0 0 0 0 0 0 0 0 0 0 0 0 0 0 0 0 0
0 0 0 0 0 0 0 0 0 0 0 0 0 0 0 0 0 0 0 0 0 0 0 0 0 0 0 0 0 0 0 0 0 0 0 0 0 0 0 0 0 0 0
0 0 0 0 0 0 0 0 0 0 0 0 0 0 0 0 0 0 0 0 0 0 0 0 0 0 0 0 0 0 0 0 0 0 0 0 0 0 0 0 0 0 0
0 0 0 0 0 0 0 0 0 0 0 0 0 0 0 0 0 0 0 0 0 0 0 0 0 0 0 0 0 0 0 0 0 0 0 0 0 0 0 0 0 0 0
0 1 0 0 0 0 0 0 0 0 0 0 0 0 0 0 0 0 0 0 0 0 0 0 0 0 0 0 0 0 0 0 0 0 0 0 0 0 0 0 0 0 0
0 1 1 0 0 0 0 0 0 0 0 0 0 0 0 0 0 0 0 0 0 0 0 0 0 0 0 0 0 0 0 0 0 0 0 0 0 0 0 0 0 0 0
0 2 0 0 0 0 0 0 0 0 0 0 0 0 0 0 0 0 0 0 0 0 0 0 0 0 0 0 0 0 0 0 0 0 0 0 0 0 0 0 0 0 0
0 0 1 0 0 0 0 0 0 0 0 0 0 0 0 0 0 0 0 0 0 0 0 0 0 0 0 0 0 0 0 0 0 0 0 0 0 0 0 0 0 0 0
CIN
-0 -116 -0 -320 -142 -44 -20 -2 -2 -0 -5 -1 -12 -0 -6 -0 -2 -0 -0 -0 -0 -0 -0 -0 -0 -0 -0 -0 -1 -2 -2 -0 -0 -2 -1 -0 -1 -3 -20 -35 -15 -1 -0
-0 -0 -0 -310 -168 -39 -3 -0 -0 -3 -7 -0 -0 -0 -0 -0 -3 -3 -3 -0 -8 -9 -1 -0 -0 -0 -0 -8 -16 -13 -13 -21 -11 -10 -9 -5 -0 -0 -0 -28 -28 -41 -4
-0 -382 -178 -148 -115 -27 -0 -0 -1 -5 -19 -0 -0 -0 -0 -4 -2 -3 -0 -3 -15 -7 -0 -11 -8 -0 -1 -0 -0 -0 -0 -0 -0 -9 -2 -0 -0 -0 -0 -1 -0 -9 -18
-0 -175 -42 -26 -8 -2 -1 -2 -12 -7 -10 -0 -0 -0 -0 -0 -0 -0 -0 -3 -14 -0 -3 -0 -0 -0 -0 -0 -0 -0 -0 -0 -6 -8 -11 -4 -7 -1 -0 -0 -0 -0 -1
-0 -62 -43 -30 -5 -3 -33 -27 -29 -32 -9 -0 -0 -0 -0 -0 -1 -12 -30 -0 -0 -0 -0 -0 -1 -0 -1 -0 -0 -0 -0 -0 -0 -5 -4 -0 -0 -2 -0 -2 -4 -10 -5
-0 -32 -21 -6 -31 -37 -73 -15 -0 -1 -2 -0 -31 -8 -15 -8 -21 -55 -0 -0 -0 -0 -1 -0 -0 -0 -0 -0 -0 -0 -0 -0 -1 -0 -2 -2 -1 -0 -0 -0 -0 -5 -0
-2 -25 -4 -0 -33 -34 -35 -0 -0 -1 -4 -10 -27 -5 -11 -0 -0 -0 -0 -0 -0 -0 -0 -0 -0 -0 -0 -0 -0 -0 -0 -0 -0 -0 -3 -0 -0 -0 -0 -0 -0 -0 -0
-0 -2 -9 -0 -1 -7 -24 -0 -0 -0 -0 -2 -0 -0 -0 -59 -0 -0 -0 -0 -0 -0 -0 -0 -0 -0 -0 -0 -0 -0 -0 -0 -0 -0 -0 -0 -0 -0 -0 -0 -0 -0 -0
-0 -0 -1 -2 -8 -1 -17 -0 -0 -32 -2 -24 -38 -0 -0 -0 -0 -0 -0 -0 -0 -0 -0 -0 -0 -0 -0 -0 -0 -0 -0 -0 -0 -0 -0 -0 -0 -0 -0 -0 -0 -0 -0
-0 -0 -0 -0 -0 -24 -0 -0 -0 -29 -1 -0 -0 -0 -0 -0 -0 -0 -0 -0 -0 -0 -0 -0 -0 -0 -0 -0 -0 -0 -0 -0 -0 -0 -0 -0 -0 -0 -0 -0 -0 -0 -0
-0 -0 -0 -0 -0 -0 -0 -9 -52 -80 -1 -0 -0 -0 -0 -0 -0 -0 -0 -0 -0 -0 -0 -0 -0 -0 -0 -0 -0 -0 -0 -0 -0 -0 -0 -0 -0 -0 -0 -0 -0 -0 -0
-0 -0 -0 -0 -0 -0 -0 -0 -0 -0 -0 -0 -0 -0 -0 -0 -0 -0 -0 -0 -0 -0 -0 -0 -0 -0 -0 -0 -0 -0 -0 -0 -0 -0 -0 -1 -0 -0 -1 -0 -0 -1 -1
-0 -0 -0 -0 -0 -0 -0 -0 -0 -0 -0 -0 -0 -0 -0 -0 -0 -0 -0 -0 -0 -0 -0 -0 -0 -0 -0 -0 -0 -0 -0 -0 -0 -0 -0 -0 -1 -0 -0 -0 -0 -0 -0
-0 -0 -0 -0 -0 -0 -0 -0 -0 -0 -0 -0 -0 -0 -0 -0 -0 -0 -0 -0 -0 -0 -0 -0 -0 -0 -0 -0 -0 -0 -0 -0 -0 -0 -0 -0 -2 -1 -0 -0 -0 -0 -0
-0 -0 -0 -0 -0 -0 -0 -0 -0 -0 -0 -0 -0 -0 -0 -0 -0 -0 -0 -0 -0 -0 -0 -0 -0 -0 -0 -0 -0 -0 -0 -0 -0 -0 -0 -0 -0 -0 -0 -1 -0 -0 -0
-0 -0 -0 -0 -0 -0 -0 -0 -0 -0 -0 -0 -0 -0 -0 -0 -0 -0 -0 -0 -0 -0 -0 -0 -0 -0 -0 -0 -0 -0 -0 -0 -0 -0 -0 -0 -0 -0 -0 -0 -0 -0 -0
-0 -1 -1 -0 -0 -0 -0 -0 -0 -0 -0 -0 -0 -0 -0 -0 -0 -0 -0 -0 -0 -0 -0 -0 -0 -0 -0 -0 -0 -0 -0 -0 -0 -0 -0 -0 -0 -0 -0 -0 -0 -0 -0
-0 -0 -0 -0 -0 -0 -0 -0 -0 -0 -0 -0 -0 -0 -0 -0 -0 -0 -0 -0 -0 -0 -0 -0 -0 -0 -0 -0 -0 -0 -0 -0 -0 -0 -0 -0 -0 -0 -0 -0 -0 -0 -0
-0 -0 -0 -0 -0 -0 -0 -0 -0 -0 -0 -0 -0 -0 -0 -0 -0 -0 -0 -0 -0 -0 -0 -0 -0 -0 -0 -0 -0 -0 -0 -0 -0 -0 -0 -0 -0 -0 -0 -0 -0 -0 -0
-0 -0 -0 -0 -0 -0 -0 -0 -0 -0 -0 -0 -0 -0 -0 -0 -0 -0 -0 -0 -0 -0 -0 -0 -0 -0 -0 -0 -0 -0 -0 -0 -0 -0 -0 -0 -0 -0 -0 -0 -0 -0 -0
-0 -0 -0 -0 -0 -0 -0 -0 -0 -0 -0 -0 -0 -0 -0 -0 -0 -0 -0 -0 -0 -0 -0 -0 -0 -0 -0 -0 -0 -0 -0 -0 -0 -0 -0 -0 -0 -0 -0 -0 -0 -0 -0
-0 -0 -0 -0 -0 -0 -0 -0 -0 -0 -0 -0 -0 -0 -0 -0 -0 -0 -0 -0 -0 -0 -0 -0 -0 -0 -0 -0 -0 -0 -0 -0 -0 -0 -0 -0 -0 -0 -0 -0 -0 -0 -0
-0 -0 -1 -0 -0 -0 -0 -0 -0 -0 -0 -0 -0 -0 -0 -0 -0 -0 -0 -0 -0 -0 -0 -0 -0 -0 -0 -0 -0 -0 -0 -0 -0 -0 -0 -0 -0 -0 -0 -0 -0 -0 -0
-1 -1 -1 -1 -0 -0 -0 -0 -0 -0 -0 -0 -0 -0 -0 -0 -0 -0 -0 -0 -0 -0 -0 -0 -0 -0 -0 -0 -0 -0 -0 -0 -0 -0 -0 -0 -0 -0 -0 -0 -0 -0 -0
-0 -0 -0 -0 -0 -0 -0 -0 -0 -0 -0 -0 -0 -0 -0 -0 -0 -0 -0 -0 -0 -0 -0 -0 -0 -0 -0 -0 -0 -0 -0 -0 -0 -0 -0 -0 -0 -0 -0 -0 -0 -0 -0
-0 -1 -1 -1 -0 -0 -0 -0 -0 -0 -0 -0 -0 -0 -0 -0 -0 -0 -0 -0 -0 -0 -0 -0 -0 -0 -0 -0 -0 -0 -0 -0 -0 -0 -0 -0 -0 -0 -0 -0 -0 -0 -0
Wind_Speed
11 12 10 11 15 18 16 14 13 14 10 5 3 3 5 6 1 4 4 7 8 4 5 7 8 9 10 11 12 13 13 13 13 13 12 12 12 12 12 12 14 13 14
13 11 11 10 11 16 17 17 17 14 10 6 2 2 2 2 3 3 3 7 5 4 5 6 6 7 10 10 11 11 12 12 13 14 13 12 11 12 13 13 13 12 13
14 15 10 10 10 13 18 18 21 16 13 7 3 1 3 3 1 4 4 6 3 4 4 5 4 6 8 8 10 11 9 8 8 9 12 12 12 12 11 12 12 13 12
14 14 15 15 11 13 18 21 18 17 11 7 3 2 2 2 3 4 2 4 5 4 4 4 4 5 6 7 8 9 8 7 9 10 9 10 10 11 12 12 12 12 12
12 12 14 16 13 10 15 20 12 14 13 7 4 1 1 4 5 7 7 5 5 5 4 4 4 4 6 7 7 8 7 7 9 9 9 9 10 10 10 11 12 12 13
12 12 13 15 15 12 12 14 12 7 3 10 2 2 3 3 5 8 7 6 7 5 4 4 4 4 5 6 7 7 7 8 9 9 9 10 11 11 11 11 11 11 11
12 12 12 13 13 12 10 7 9 8 9 7 4 1 0 4 6 7 6 6 4 6 5 4 4 5 5 6 6 7 7 9 9 9 10 10 11 11 12 12 12 12 13
10 14 12 13 11 11 8 7 8 7 4 5 5 1 2 3 6 8 6 4 5 5 5 5 5 6 6 7 7 8 9 11 10 10 11 12 12 13 13 13 13 13 13
9 11 13 12 12 11 12 7 4 5 3 2 2 5 4 5 7 7 5 4 6 6 6 6 6 6 7 8 8 9 10 11 11 12 12 13 13 14 14 14 14 14 14
7 8 9 10 10 8 10 9 6 11 8 2 2 2 3 5 6 4 5 5 7 8 7 7 7 8 8 9 10 11 11 12 12 12 14 14 14 14 14 14 14 14 14
5 6 6 8 7 7 7 8 10 9 10 3 2 2 4 5 5 7 7 7 8 10 8 8 8 9 9 10 11 11 12 13 13 13 14 14 14 13 12 13 13 13 14
3 4 5 5 6 5 5 5 4 5 5 3 3 7 6 6 7 7 7 8 9 9 9 10 10 12 12 13 13 13 13 12 13 13 15 14 12 12 13 14 14 15 15
4 4 5 5 5 6 3 2 3 5 4 7 6 8 6 7 6 9 11 12 13 14 13 13 13 13 13 13 13 13 13 13 13 13 15 13 12 12 14 14 15 16 16
7 7 7 7 7 5 5 1 5 2 4 6 8 12 8 9 11 14 14 12 13 14 14 14 14 13 13 13 13 13 13 13 13 12 14 13 13 13 14 15 15 16 17
7 7 9 10 8 6 4 2 1 1 1 2 2 3 6 14 13 13 14 13 13 14 14 15 15 14 14 14 14 13 13 12 13 12 13 13 12 13 15 16 17 18 19
6 7 9 10 9 7 5 5 5 5 4 5 6 8 10 12 13 11 12 13 13 14 14 15 16 15 15 14 14 14 14 13 13 12 11 13 14 15 16 18 19 20 21
8 7 8 9 9 8 7 6 6 7 8 9 9 8 11 11 12 13 13 13 13 13 14 15 15 15 15 15 14 14 14 14 13 13 14 14 15 17 18 19 20 21 23
10 10 10 9 10 9 8 8 7 6 6 7 9 10 10 11 10 12 14 14 14 14 15 16 16 17 17 16 16 16 15 15 15 15 15 16 18 18 19 21 21 22 24
11 11 12 11 12 11 10 9 9 8 8 8 8 9 9 10 11 12 14 15 14 15 16 16 18 18 18 17 17 17 16 16 16 16 16 17 18 19 20 21 22 22 24
12 12 12 12 12 12 12 12 12 12 13 12 12 11 11 11 11 12 14 15 16 16 17 18 18 18 19 18 18 18 18 17 17 17 17 18 19 20 21 22 23 24 24
14 13 13 14 14 14 15 15 15 16 16 17 16 13 13 13 13 13 14 14 16 18 18 18 18 18 19 20 19 20 20 20 19 19 19 20 20 21 22 23 24 25 26
18 17 15 15 15 15 16 17 18 18 18 17 17 17 16 14 13 14 14 16 16 17 17 18 18 19 20 20 23 23 25 24 22 21 21 22 23 23 23 25 25 26 26
20 20 19 18 17 17 16 16 16 16 16 19 19 19 18 17 17 17 17 16 16 17 18 18 19 20 21 20 21 23 27 28 22 21 22 23 24 25 25 26 26 26 26
20 19 20 19 19 19 18 19 19 21 22 23 21 19 19 19 19 18 17 17 17 17 18 18 19 20 21 21 21 21 22 24 27 27 22 23 24 26 27 27 28 27 27
21 20 20 19 19 20 21 21 21 23 23 20 20 19 20 20 19 19 19 19 19 20 19 20 20 20 22 22 23 22 23 23 24 27 29 25 24 25 27 28 29 28 27
20 19 19 19 20 20 21 22 24 25 23 21 21 22 22 21 20 19 20 20 20 20 20 21 21 21 22 22 22 23 24 25 26 27 29 30 31 29 28 30 28 28 29
Wind_Direction
8 6 14 354 320 299 291 291 288 283 283 287 325 319 75 92 353 296 351 31 30 333 357 9 26 37 45 41 42 44 43 43 41 38 32 31 29 25 23 19 28 26 29
2 5 6 352 335 308 287 284 282 282 281 279 294 300 3 31 276 291 21 41 0 311 334 346 14 32 43 40 40 38 41 42 43 43 39 27 20 24 24 25 24 22 22
0 343 9 350 329 314 289 282 274 278 275 273 265 207 103 84 316 44 43 43 358 343 332 336 351 23 38 32 35 36 31 20 17 15 27 23 19 17 14 19 21 22 18
359 355 355 343 322 310 292 282 281 275 272 261 246 166 97 80 28 56 7 7 350 347 346 332 358 16 22 17 21 25 16 348 16 21 11 5 359 6 15 15 12 12 9
14 17 16 358 350 329 296 289 281 272 266 251 177 99 186 78 67 46 21 347 349 329 342 327 341 355 9 11 13 16 355 338 12 4 355 349 344 341 349 357 357 0 6
25 30 28 18 10 356 319 319 296 259 276 167 118 266 48 34 32 47 27 332 11 304 316 332 328 339 356 3 5 4 340 319 346 4 357 344 340 337 338 340 341 342 343
38 36 36 27 21 14 348 321 350 11 130 112 92 182 241 26 23 26 22 25 332 276 295 308 323 335 341 343 342 341 331 330 352 351 346 342 332 333 335 334 332 331 332
47 11 42 32 30 21 3 22 37 321 41 91 82 100 304 350 17 40 32 355 297 276 292 302 309 323 327 328 328 325 320 314 338 337 342 334 325 328 329 333 335 336 336
42 25 18 38 41 47 43 42 56 10 354 31 63 70 53 41 32 32 18 308 270 278 290 299 307 316 317 316 318 321 319 319 327 320 325 326 322 324 325 329 332 333 330
41 36 31 20 25 22 46 59 61 73 70 10 341 6 30 37 17 350 338 308 280 277 286 300 309 315 316 313 310 307 310 312 320 319 319 318 320 320 318 319 321 323 324
42 47 35 53 30 43 36 73 76 79 69 71 359 323 324 338 340 286 283 283 278 267 292 300 309 315 322 319 312 310 307 309 311 310 310 305 312 318 326 330 333 332 332
117 85 70 70 66 24 48 71 53 44 37 305 24 288 309 310 287 280 284 279 278 290 297 303 305 300 300 300 301 301 302 304 306 312 307 312 331 335 332 328 323 322 326
142 138 125 116 101 85 304 310 49 58 351 296 290 287 300 286 288 280 274 276 274 277 288 294 297 298 296 296 296 298 301 304 312 320 312 321 333 333 329 327 323 324 327
160 162 154 149 145 128 114 304 281 358 56 293 289 266 286 288 280 266 276 287 290 288 291 293 294 295 294 297 299 305 307 311 316 329 325 332 332 328 326 327 326 329 331
180 171 169 163 163 163 161 169 305 353 12 333 11 333 311 273 279 278 281 291 292 293 294 294 292 293 295 299 301 306 311 318 316 326 323 330 330 328 325 323 324 326 328
216 194 180 177 175 182 196 220 267 285 289 296 296 292 287 283 283 295 293 296 300 296 296 292 290 291 295 300 304 307 310 314 316 323 324 319 323 324 324 322 322 323 323
240 222 206 195 193 196 208 218 258 273 277 282 285 285 286 287 287 287 293 296 300 299 297 296 294 297 298 301 304 306 311 315 317 314 313 313 315 317 319 319 319 319 318
241 232 223 218 212 214 220 233 253 254 262 273 278 279 280 285 287 287 287 290 294 294 292 292 293 295 295 298 301 302 308 311 312 312 312 310 307 309 314 315 316 319 320
241 232 224 223 223 228 234 247 255 256 265 270 271 273 275 281 285 288 288 288 291 291 292 292 293 293 293 295 297 300 304 305 308 310 311 312 311 312 312 315 316 319 320
260 246 237 235 233 234 247 255 260 262 268 270 271 275 276 280 282 287 288 288 290 290 290 290 292 296 296 297 298 299 300 303 305 306 307 309 310 310 313 315 316 316 318
270 258 245 240 242 240 244 248 253 256 262 265 266 266 270 274 279 283 286 288 289 288 289 290 293 294 297 296 297 298 299 300 300 301 303 304 306 308 310 313 315 315 316
274 269 258 251 246 244 252 256 258 259 264 264 266 267 270 271 273 279 281 284 287 289 291 291 292 294 297 298 294 295 293 296 296 297 299 299 301 306 309 312 313 314 315
282 275 269 262 255 250 253 253 258 261 263 264 262 264 265 269 271 277 279 282 284 288 290 292 294 292 293 298 299 295 292 292 298 300 298 299 300 302 308 310 312 314 315
296 287 277 269 263 258 255 253 251 255 257 264 259 261 265 269 270 273 276 280 284 287 289 292 294 294 294 293 298 301 300 299 294 295 300 300 302 302 306 307 309 312 313
305 297 288 278 269 264 261 261 258 261 262 260 259 259 262 266 268 272 276 280 283 287 288 290 292 293 294 294 295 297 299 301 300 297 295 298 303 305 307 307 308 309 313
318 310 299 288 279 272 266 264 264 263 259 256 256 256 259 263 266 270 274 278 281 284 286 289 292 294 295 296 296 297 296 296 297 298 296 298 299 303 307 307 308 309 311